Regional Weather Roundup
Issued by NWS Green Bay, WI

Home | Current Version | Previous Version | Text Only | Print | Product List | Glossary On
Versions: 1 2 3 4 5 6 7 8 9 10 11 12 13 14 15 16 17 18 19 20 21 22 23 24 25 26 27 28 29 30 31 32 33 34 35 36 37 38 39 40 41 42 43 44 45 46 47 48 49 50
000
ASUS43 KGRB 221911
RWRGRB

NORTH-CENTRAL AND NORTHEAST WISCONSIN REGIONAL WEATHER ROUNDUP
NATIONAL WEATHER SERVICE GREEN BAY WI
200 PM CDT FRI MAY 22 2015

WIZ005-009-010>012-018-019-222000-
NORTH CENTRAL WISCONSIN

CITY           SKY/WX    TMP DP  RH WIND       PRES   REMARKS
IRONWOOD       SUNNY     61  28  29 NW7       30.21S
MANITOWISH WTR SUNNY     62  26  25 N8        30.22S
ARBOR VITAE    SUNNY     64  23  21 CALM      30.22S
EAGLE RIVER    SUNNY     64  17  16 NE5       30.20F
LAND O LAKES   SUNNY     64  14  14 NW10      30.22S
RHINELANDER    SUNNY     65  25  22 N9        30.22S
PHILLIPS       SUNNY     65  32  29 W3        30.21S
ANTIGO         SUNNY     64  30  28 NW8G16    30.22S
TOMAHAWK       SUNNY     65  27  23 NW7G20    30.21F
MERRILL        SUNNY     66  32  28 NW6       30.22S
$$

WIZ013-073-222000-
NORTHEAST WISCONSIN

CITY           SKY/WX    TMP DP  RH WIND       PRES   REMARKS
IRON MOUNTAIN  SUNNY     66  21  18 N10       30.19S
MARINETTE      SUNNY     57  25  28 SE12G17   30.24S
OCONTO         SUNNY     61  31  31 SE12      30.23F
$$

WIZ017-030-035>037-045-222000-
CENTRAL WISCONSIN

CITY           SKY/WX    TMP DP  RH WIND       PRES   REMARKS
MEDFORD        SUNNY     66  32  28 S7        30.22F
WAUSAU         SUNNY     66  33  29 S3        30.21S
MOSINEE        SUNNY     64  36  34 NW8       30.23F
MARSHFIELD     SUNNY     68  34  28 W9        30.23S
WISC RAPIDS    SUNNY     70  28  21 VRB5      30.24S
STEVENS POINT  SUNNY     64  31  29 SW9       30.22F
WAUPACA        SUNNY     71  27  19 NW7       30.22F
SHAWANO        SUNNY     69  30  23 W8        30.21F
CLINTONVILLE   SUNNY     68  28  22 SW5       30.22S
$$

WIZ038-039-048-051-222000-
FOX VALLEY

CITY           SKY/WX    TMP DP  RH WIND       PRES   REMARKS
NWS GREEN BAY  SUNNY     65  30  27 SW7       30.24S
APPLETON       SUNNY     63  30  29 SE8       30.24S
OSHKOSH        SUNNY     64  39  39 E9        30.23F
FOND DU LAC    SUNNY     66  31  27 CALM      30.23F
$$

WIZ022-050-052-222000-
EAST CENTRAL WISCONSIN

CITY           SKY/WX    TMP DP  RH WIND       PRES   REMARKS
STURGEON BAY   SUNNY     54  32  43 SE10      30.29R
MANITOWOC      SUNNY     51  32  48 SE10      30.28R
SHEBOYGAN      SUNNY     59  29  31 SE10      30.26S
$$

LMZ563-521-522-541>543-222000-
LAKESHORE

STATION/POSITION TIME  TEMP    WIND        PRES    VSBY  WAVE
                       AIR SEA DIR/SP/G                  HT/PER
                 (UTC) (F)     (DEG/KT/KT) (MB)    (MI)  (FT/S)
SHEBOYGAN LKSHOR 1900          130/  8/  9 1025.9R
KEWAUNEE LKSHORE 1800   45     120/  4/  8 1024.3R
NORTHPORT PIER   1800   44     110/ 10/ 12 1025.1R
N MID LAKE BUOY  1850   39 36  160/  8/  8 1025.8R         1
SISTER BAY LKSHO 1817   54     150/ 12/ 14   N/A
STURGEON BAY CG  1745           80/  6     1024.6      6   1
CHAMBERS ISLAND  1800   52      80/  8/ 12 1024.4R
MENOMINEE LKSHOR 1800   50     100/  9/  9 1024.6S
$$


USA.gov is the U.S. government's official web portal to all federal, state and local government web resources and services.